Amsterdam, Netherlands

2:02 AM CET on February 28, 2017 (GMT +0100)
Schiphol

Weather History for EHAM - January, 2014

Change the Weather History Date:

Thursday, January 23, 2014

  Actual Average Record
Temperature  
Mean Temperature 39 °F -  
Max Temperature 42 °F 43 °F 50 °F (2001)
Min Temperature 36 °F 34 °F 18 °F (2013)
Degree Days  
Heating Degree Days 26    
Moisture  
Dew Point 37 °F    
Average Humidity 94    
Maximum Humidity 100    
Minimum Humidity 84    
Precipitation  
Precipitation 0.28 in - - ()
Sea Level Pressure  
Sea Level Pressure 29.84 in    
Wind  
Wind Speed 9 mph ()    
Max Wind Speed 16 mph    
Max Gust Speed -    
Visibility 4.0 miles    
Events Fog , Rain    
Averages and records for this station are not official NWS values.
T = Trace of Precipitation, MM = Missing Value Source: Averaged Metar Reports

Daily Weather History Graph

Daily Weather History Graph

Search for Another Location

Airport or City:

Trip Planner

Search our weather history database for the weather conditions in past years. The results will help you decide how hot, cold, wet, or windy it might be!

Date:

Astronomy

Jan. 23, 2014 Rise Set
Actual Time 8:34 AM CET 5:11 PM CET
Civil Twilight 7:56 AM CET 5:49 PM CET
Nautical Twilight 7:14 AM CET 6:31 PM CET
Astronomical Twilight 6:34 AM CET 7:11 PM CET
Moon 12:20 AM CET (1/23) 11:03 AM CET (1/23)
Length of Visible Light 9h 52m
Length of Day
8h 36m
Waning Gibbous, 58% of the Moon is Illuminated
Jan 23
Waning Gibbous
Jan 24
Last Quarter
Jan 30
New
Feb 6
First Quarter
Feb 15
Full

Hourly Weather History & Observations

Time (CET) Temp. Windchill Dew Point Humidity Pressure Visibility Wind Dir Wind Speed Gust Speed Precip Events Conditions
12:00 AM 38 °F - 35 °F 87% 29.92 in 6 mi SSE 8.9 mph - - Rain Drizzle
12:25 AM 37.4 °F 30.8 °F 35.6 °F 93% 29.92 in 5.6 mi SSE 9.2 mph - N/A Rain Light Rain
12:55 AM 37.4 °F 30.3 °F 35.6 °F 93% 29.92 in 5.6 mi SSE 10.4 mph - N/A Rain Light Rain
1:00 AM 38 °F - 35 °F 86% 29.92 in 6 mi SSE 8.9 mph - - Rain Drizzle
1:25 AM 37.4 °F 30.8 °F 35.6 °F 93% 29.89 in 5.6 mi SSE 9.2 mph - N/A Rain Light Rain
1:55 AM 37.4 °F 30.8 °F 35.6 °F 93% 29.89 in 5.6 mi SSE 9.2 mph - N/A Rain Light Rain
2:00 AM 37 °F - 35 °F 90% 29.91 in 6 mi SSE 8.9 mph - - Rain Light Rain
2:25 AM 37.4 °F 30.8 °F 35.6 °F 93% 29.89 in 5.6 mi SSE 9.2 mph - N/A Rain Light Rain
2:55 AM 37.4 °F 30.8 °F 35.6 °F 93% 29.89 in 5.0 mi SSE 9.2 mph - N/A Rain Light Rain
3:00 AM 37 °F - 35 °F 91% 29.92 in 4 mi SSE 8.9 mph - - Rain Drizzle
3:25 AM 37.4 °F 30.8 °F 35.6 °F 93% 29.92 in 4.3 mi SSE 9.2 mph - N/A Rain Light Rain
3:55 AM 37.4 °F 31.4 °F 35.6 °F 93% 29.89 in 4.3 mi SSE 8.1 mph - N/A   Light Drizzle
4:00 AM 37 °F - 35 °F 90% 29.91 in 4 mi SSE 8.9 mph - - Rain Light Drizzle
4:25 AM 37.4 °F 30.8 °F 35.6 °F 93% 29.89 in 3.7 mi SSE 9.2 mph - N/A   Light Drizzle
4:55 AM 37.4 °F 30.3 °F 35.6 °F 93% 29.89 in 3.7 mi SSE 10.4 mph - N/A Rain Light Rain
5:00 AM 37 °F - 35 °F 91% 29.91 in 3 mi SSE 11.2 mph - - Rain Drizzle
5:25 AM 37.4 °F 30.3 °F 35.6 °F 93% 29.89 in 3.1 mi SSE 10.4 mph - N/A Rain Light Rain
5:55 AM 37.4 °F 30.8 °F 35.6 °F 93% 29.89 in 3.1 mi SSE 9.2 mph - N/A Rain Light Rain
6:00 AM 37 °F - 35 °F 91% 29.91 in 4 mi SSE 8.9 mph - - Rain Heavy Rain
6:25 AM 37.4 °F 30.3 °F 35.6 °F 93% 29.89 in 3.1 mi SSE 10.4 mph - N/A Rain Light Rain
6:55 AM 37.4 °F 30.8 °F 35.6 °F 93% 29.89 in 3.1 mi SSE 9.2 mph - N/A Rain Light Rain
7:00 AM 37 °F - 35 °F 91% 29.90 in 4 mi South 8.9 mph - - Rain Light Drizzle
7:25 AM 37.4 °F 30.3 °F 35.6 °F 93% 29.89 in 3.1 mi South 10.4 mph - N/A Rain Light Rain
7:55 AM 37.4 °F 30.8 °F 35.6 °F 93% 29.89 in - SSE 9.2 mph - N/A Rain Light Rain
8:00 AM 37 °F - 35 °F 91% 29.90 in 3 mi SSE 11.2 mph - - Rain Rain
8:25 AM 37.4 °F 30.3 °F 35.6 °F 93% 29.89 in - SSE 10.4 mph - N/A Rain Light Rain
8:55 AM 37.4 °F 29.8 °F 35.6 °F 93% 29.89 in - SSE 11.5 mph - N/A Rain Light Rain
9:00 AM 37 °F - 36 °F 92% 29.90 in 3 mi South 11.2 mph - - Rain Light Rain
9:25 AM 37.4 °F 30.3 °F 35.6 °F 93% 29.89 in - SSE 10.4 mph - N/A Rain Light Rain
9:55 AM 37.4 °F 29.8 °F 35.6 °F 93% 29.89 in - SSE 11.5 mph - N/A Rain Light Rain
10:00 AM 37 °F - 36 °F 95% 29.90 in 3 mi SSE 11.2 mph - - Rain Drizzle
10:25 AM 37.4 °F 29.8 °F 35.6 °F 93% 29.89 in 2.2 mi SSE 11.5 mph - N/A Rain Light Rain
10:55 AM 37.4 °F 29.3 °F 37.4 °F 100% 29.89 in 1.7 mi SSE 12.7 mph - N/A Rain Light Rain
11:00 AM 37 °F - 37 °F 98% 29.89 in 2 mi SSE 13.4 mph - - Rain Drizzle
11:25 AM 37.4 °F 29.3 °F 37.4 °F 100% 29.86 in 1.6 mi SSE 12.7 mph - N/A Rain Light Rain
11:55 AM 37.4 °F 29.3 °F 37.4 °F 100% 29.86 in 1.5 mi South 12.7 mph - N/A   Light Drizzle
12:00 PM 38 °F - 38 °F 98% 29.87 in 2 mi South 13.4 mph - - Rain Rain
12:25 PM 39.2 °F 31.6 °F 37.4 °F 93% 29.86 in 1.0 mi South 12.7 mph - N/A   Light Drizzle
12:55 PM 39.2 °F 31.6 °F 39.2 °F 100% 29.83 in 0.4 mi South 12.7 mph - N/A Fog Fog
1:00 PM 39 °F - 39 °F 99% 29.85 in 0 mi South 11.2 mph - - Fog Fog
1:25 PM 39.2 °F 31.6 °F 39.2 °F 100% 29.83 in 0.3 mi South 12.7 mph - N/A Fog Fog
1:55 PM 39.2 °F 31.6 °F 39.2 °F 100% 29.80 in 0.2 mi South 12.7 mph - N/A Fog Fog
2:00 PM 40 °F - 40 °F 99% 29.82 in 0 mi South 11.2 mph - - Fog Fog
2:25 PM 41.0 °F 34.3 °F 41.0 °F 100% 29.80 in 0.2 mi South 11.5 mph - N/A Fog Fog
2:55 PM 41.0 °F 34.7 °F 41.0 °F 100% 29.80 in 1.3 mi South 10.4 mph - N/A   Overcast
3:00 PM 41 °F - 41 °F 100% 29.80 in 1 mi South 11.2 mph - - Rain Drizzle
3:25 PM 41.0 °F 34.3 °F 41.0 °F 100% 29.77 in 1.0 mi South 11.5 mph - N/A   Overcast
3:55 PM 41.0 °F 34.7 °F 41.0 °F 100% 29.77 in 0.9 mi South 10.4 mph - N/A   Overcast
4:00 PM 42 °F - 42 °F 99% 29.78 in 1 mi South 11.2 mph - -   Unknown Precipitation
4:25 PM 42.8 °F 37.0 °F 42.8 °F 100% 29.77 in 1.5 mi SSE 10.4 mph - N/A   Mostly Cloudy
4:55 PM 41.0 °F 34.3 °F 41.0 °F 100% 29.77 in 2.2 mi SSE 11.5 mph - N/A   Scattered Clouds
5:00 PM 42 °F - 41 °F 95% 29.77 in 2 mi SSE 11.2 mph - -   Mist
5:25 PM 42.8 °F 36.6 °F 41.0 °F 93% 29.77 in 2.8 mi South 11.5 mph - N/A   Scattered Clouds
5:55 PM 42.8 °F 36.6 °F 41.0 °F 93% 29.74 in 2.8 mi South 11.5 mph - N/A Rain Light Rain
6:00 PM 42 °F - 41 °F 95% 29.77 in 3 mi South 11.2 mph - - Rain Light Drizzle
6:25 PM 39.2 °F 32.0 °F 39.2 °F 100% 29.77 in 3.7 mi West 11.5 mph - N/A Rain Light Rain
6:55 PM 39.2 °F 32.5 °F 37.4 °F 93% 29.77 in 5.0 mi West 10.4 mph - N/A Rain Light Rain
7:00 PM 39 °F - 37 °F 89% 29.79 in 6 mi West 8.9 mph - - Rain Rain
7:25 PM 39.2 °F 34.2 °F 37.4 °F 93% 29.77 in 5.6 mi West 6.9 mph - N/A Rain Light Rain
7:55 PM 39.2 °F 37.0 °F 37.4 °F 93% 29.77 in 6.2 mi West 3.5 mph - N/A Rain Light Rain
8:00 PM 39 °F - 37 °F 90% 29.78 in 10 mi West 2.2 mph - - Rain Light Rain
8:25 PM 39.2 °F 33.0 °F 37.4 °F 93% 29.77 in 5.0 mi West 9.2 mph - N/A Rain Light Rain
8:55 PM 39.2 °F 37.0 °F 37.4 °F 93% 29.77 in 6.2 mi WNW 3.5 mph - N/A   Mostly Cloudy
9:00 PM 39 °F - 38 °F 94% 29.79 in 17 mi WNW 2.2 mph - - Rain Light Rain
9:25 PM 39.2 °F 37.0 °F 37.4 °F 93% 29.77 in 6.2 mi West 3.5 mph - N/A Rain Light Rain
9:55 PM 39.2 °F - 37.4 °F 93% 29.80 in 6.2 mi NW 2.3 mph - N/A   Partly Cloudy
10:00 PM 39 °F - 38 °F 94% 29.80 in 14 mi NNW 2.2 mph - - Rain Rain
10:25 PM 39.2 °F 35.0 °F 35.6 °F 87% 29.80 in 6.2 mi WNW 5.8 mph - N/A   Partly Cloudy
10:55 PM 39.2 °F 34.2 °F 37.4 °F 93% 29.80 in 6.2 mi WNW 6.9 mph - N/A   Scattered Clouds
11:00 PM 40 °F - 37 °F 84% 29.81 in 12 mi WNW 6.7 mph - -   Partly Cloudy
11:25 PM 41.0 °F 33.9 °F 37.4 °F 87% 29.80 in 6.2 mi WNW 12.7 mph - N/A Rain Light Rain Showers
11:55 PM 39.2 °F 30.5 °F 37.4 °F 93% 29.80 in 6.2 mi NW 16.1 mph - N/A Rain Light Rain Showers